Weather History for PAEN - February, 2014

Change the Weather History Date:

Thursday, February 13, 2014

  Actual Average Record
Temperature  
Mean Temperature 6 °F -  
Max Temperature 10 °F 26 °F 43 °F (1968)
Min Temperature 1 °F 8 °F -31 °F (1956)
Degree Days  
Heating Degree Days 60    
Moisture  
Dew Point 1 °F    
Average Humidity 84    
Maximum Humidity 92    
Minimum Humidity 66    
Precipitation  
Precipitation 0.00 in - - ()
Sea Level Pressure  
Sea Level Pressure 28.99 in    
Wind  
Wind Speed 5 mph (NNE)    
Max Wind Speed 16 mph    
Max Gust Speed -    
Visibility 7 miles    
Events Snow    
Averages and records for this station are not official NWS values.
T = Trace of Precipitation, MM = Missing Value Source: NWS Daily Summary

Daily Weather History Graph

Daily Weather History Graph

Search for Another Location

Airport or City:

Trip Planner

Search our weather history database for the weather conditions in past years. The results will help you decide how hot, cold, wet, or windy it might be!

Date:

Astronomy

Feb. 13, 2014 Rise Set
Actual Time 8:49 AM AKST 5:49 PM AKST
Civil Twilight 8:04 AM AKST 6:34 PM AKST
Nautical Twilight 7:15 AM AKST 7:24 PM AKST
Astronomical Twilight 6:26 AM AKST 8:13 PM AKST
Moon 5:09 PM AKST (2/13) 7:50 AM AKST (2/13)
Length of Visible Light 10h 29m
Length of Day
8h 59m
Waxing Gibbous, 99% of the Moon is Illuminated
Feb 13
Waxing Gibbous
Feb 14
Full
Feb 22
Last Quarter
Feb 28
New
Mar 8
First Quarter

Hourly Weather History & Observations

Time (AKST) Temp. Windchill Dew Point Humidity Pressure Visibility Wind Dir Wind Speed Gust Speed Precip Events Conditions
12:53 AM 3.9 °F -5.3 °F -5.1 °F 66% 29.05 in 10.0 mi North 4.6 mph - N/A   Overcast
1:53 AM 3.9 °F -5.3 °F -4.0 °F 70% 29.03 in 10.0 mi NNE 4.6 mph - N/A   Overcast
2:08 AM 3.2 °F -4.2 °F -4.0 °F 72% 29.02 in 10.0 mi NNE 3.5 mph - N/A   Overcast
2:20 AM 3.2 °F -6.2 °F -2.2 °F 78% 29.02 in 10.0 mi NNE 4.6 mph - N/A   Overcast
2:53 AM 3.0 °F -4.4 °F -2.0 °F 80% 29.02 in 10.0 mi NNE 3.5 mph - N/A   Overcast
3:49 AM 3.2 °F -6.2 °F -0.4 °F 85% 29.00 in 8.0 mi NE 4.6 mph - N/A   Overcast
3:53 AM 3.0 °F -8.0 °F -0.9 °F 84% 29.01 in 9.0 mi NNE 5.8 mph - N/A   Overcast
4:53 AM 3.9 °F -5.3 °F 1.0 °F 88% 29.00 in 5.0 mi NE 4.6 mph - 0.00 in Snow Light Snow
5:30 AM 3.2 °F -9.1 °F 1.4 °F 92% 28.98 in 2.5 mi ENE 6.9 mph - 0.00 in Snow Light Snow
5:36 AM 3.2 °F -10.3 °F 1.4 °F 92% 28.98 in 3.0 mi ENE 8.1 mph - 0.00 in Snow Light Snow
5:41 AM 3.2 °F -9.1 °F 1.4 °F 92% 28.98 in 2.5 mi ENE 6.9 mph - 0.00 in Snow Light Snow
5:53 AM 3.9 °F -6.9 °F 1.0 °F 88% 28.98 in 1.2 mi NE 5.8 mph - 0.00 in Snow Light Snow
6:14 AM 3.2 °F -9.1 °F -0.4 °F 85% 28.97 in 3.0 mi ENE 6.9 mph - 0.00 in Snow Light Snow
6:53 AM 1.9 °F -5.6 °F -0.9 °F 88% 28.97 in 10.0 mi North 3.5 mph - 0.00 in   Overcast
7:53 AM 1.9 °F - -0.0 °F 91% 28.96 in 3.0 mi Calm Calm - 0.00 in Snow Light Snow
7:56 AM 1.4 °F - -0.4 °F 92% 28.95 in 32.0 mi Calm Calm - 0.00 in Snow Light Snow
7:59 AM 1.4 °F - -0.4 °F 92% 28.95 in 3.0 mi Calm Calm - 0.00 in Snow Light Snow
8:19 AM 3.2 °F - 1.4 °F 92% 28.95 in 3.0 mi Calm Calm - 0.00 in Snow Light Snow
8:53 AM 3.0 °F - -0.0 °F 87% 28.96 in 2.5 mi Calm Calm - 0.00 in Snow Light Snow
9:07 AM 3.2 °F - -0.4 °F 85% 28.95 in 1.2 mi Calm Calm - 0.00 in Snow Light Snow
9:53 AM 3.0 °F - 1.0 °F 91% 28.96 in 1.5 mi Calm Calm - 0.00 in Snow Light Snow
9:58 AM 3.2 °F - 1.4 °F 92% 28.94 in 3.0 mi Calm Calm - 0.00 in Snow Light Snow
10:40 AM 3.2 °F - -0.4 °F 85% 28.95 in 4.0 mi Calm Calm - 0.00 in   Mostly Cloudy
10:53 AM 3.0 °F - -0.0 °F 87% 28.96 in 10.0 mi Calm Calm - 0.00 in   Scattered Clouds
11:53 AM 5.0 °F - -0.0 °F 80% 28.96 in 10.0 mi Calm Calm - N/A   Overcast
12:53 PM 6.1 °F - 1.0 °F 80% 28.98 in 7.0 mi Calm Calm - N/A   Overcast
1:53 PM 8.1 °F - 1.0 °F 73% 28.99 in 8.0 mi Calm Calm - 0.00 in   Overcast
2:53 PM 8.1 °F -0.5 °F 1.0 °F 73% 29.00 in 10.0 mi NNW 4.6 mph - N/A   Partly Cloudy
3:53 PM 8.1 °F 1.4 °F 1.9 °F 76% 29.01 in 10.0 mi NW 3.5 mph - N/A   Clear
4:53 PM 8.1 °F -3.2 °F 1.9 °F 76% 29.03 in 10.0 mi NNW 6.9 mph - N/A   Clear
5:53 PM 3.9 °F -8.2 °F -0.0 °F 84% 29.04 in 10.0 mi NNW 6.9 mph - N/A   Clear
6:53 PM 7.0 °F -3.3 °F 3.9 °F 87% 29.03 in 10.0 mi North 5.8 mph - N/A   Overcast
7:53 PM 8.1 °F -3.2 °F 5.0 °F 87% 29.01 in 10.0 mi North 6.9 mph - N/A   Overcast
8:27 PM 10.4 °F -4.1 °F 6.8 °F 85% 29.00 in 7.0 mi NNE 11.5 mph - 0.00 in Snow Light Snow
8:46 PM 10.4 °F -6.0 °F 6.8 °F 85% 29.00 in 8.0 mi NNE 15.0 mph - 0.00 in Snow Light Snow
8:53 PM 10.0 °F -6.5 °F 6.1 °F 84% 29.01 in 8.0 mi NNE 15.0 mph - 0.00 in Snow Light Snow
9:02 PM 10.4 °F -4.8 °F 6.8 °F 85% 29.00 in 8.0 mi NNE 12.7 mph - 0.00 in Snow Light Snow
9:17 PM 10.4 °F -5.4 °F 6.8 °F 85% 29.00 in 8.0 mi NNE 13.8 mph - 0.00 in Snow Light Snow
9:53 PM 10.0 °F -3.7 °F 5.0 °F 80% 29.02 in 10.0 mi NNE 10.4 mph - 0.00 in   Overcast
10:53 PM 10.0 °F -3.7 °F 5.0 °F 80% 29.02 in 10.0 mi NNE 10.4 mph - N/A   Overcast
11:53 PM 9.0 °F -8.5 °F 3.9 °F 80% 29.01 in 10.0 mi NNE 16.1 mph - N/A   Scattered Clouds